Starlink 4331

operational
NORAD ID: 53046 Int'l Des: 2022-077 Owner: SPXS Country: US Constellation: starlink
LEOCIRCULARRETROGRADESSO

Starlink 4331について

説明を読み込み中...

リアルタイム位置

3D地球を読み込み中...

次回通過

高度履歴

Altitude vs Time

uPlot chart will show altitude changes over time

軌道要素

1 53046U 22077D 25353.07625065 -.00000174 00000-0 -78130-5 0 9993
2 53046 97.6023 171.8513 0001686 81.1798 278.9620 15.05646021188863
Epoch: Dec 19, 2025 • Age: 12 hours

現在のステータス

高度 554.1 km
速度 7.59 km/s
衛星直下点 36.50°N, 65.13°E
打ち上げ日 Jul 11, 2022
運用期間 3.4 years
タイプ internet

技術仕様

分類 Payload
質量 297.00 kg
乾燥質量 275.00 kg
総質量 297.00 kg
長さ 0.20 m
直径 2.80 m
スパン 9.00 m
形状 Box + pan
製造者 SPXS
バスタイプ Starlink
フェーズステータス In Orbit
所有者/国 SPXS/US

大規模コンステレーション

Loading constellations...